Time,TemperatureF,DewpointF,PressureIn,WindDirection,WindDirectionDegrees,WindSpeedMPH,WindSpeedGustMPH,Humidity,HourlyPrecipIn,Conditions,Clouds,dailyrainin,SoftwareType,DateUTC
2013-01-29 00:07:00,50.5,44.2,29.34,North,-999,-999.0,-999.0,79,-99.99,,,-99.99,meteohub,2013-01-29 00:07:00,
2013-01-29 00:12:00,50.5,44.2,29.34,North,-999,-999.0,-999.0,79,-99.99,,,-99.99,meteohub,2013-01-29 00:12:00,
2013-01-29 00:17:00,50.4,44.4,29.34,North,-999,-999.0,-999.0,80,-99.99,,,-99.99,meteohub,2013-01-29 00:17:00,
2013-01-29 00:22:00,50.4,44.4,29.34,North,-999,-999.0,-999.0,80,-99.99,,,-99.99,meteohub,2013-01-29 00:22:00,
2013-01-29 00:27:00,50.4,44.8,29.34,North,-999,-999.0,-999.0,81,-99.99,,,-99.99,meteohub,2013-01-29 00:27:00,
2013-01-29 00:32:00,50.2,44.6,29.34,North,-999,-999.0,-999.0,81,-99.99,,,-99.99,meteohub,2013-01-29 00:32:00,
2013-01-29 00:37:00,50.4,44.8,29.34,North,-999,-999.0,-999.0,81,-99.99,,,-99.99,meteohub,2013-01-29 00:37:00,
2013-01-29 00:42:00,50.4,44.8,29.34,North,-999,-999.0,-999.0,81,-99.99,,,-99.99,meteohub,2013-01-29 00:42:00,
2013-01-29 00:47:00,50.4,44.8,29.36,North,-999,-999.0,-999.0,81,-99.99,,,-99.99,meteohub,2013-01-29 00:47:00,
2013-01-29 00:52:00,50.5,44.6,29.36,North,-999,-999.0,-999.0,80,-99.99,,,-99.99,meteohub,2013-01-29 00:52:00,
2013-01-29 00:57:00,50.4,44.1,29.36,North,-999,-999.0,-999.0,79,-99.99,,,-99.99,meteohub,2013-01-29 00:57:00,
2013-01-29 01:02:00,50.4,44.1,29.34,North,-999,-999.0,-999.0,79,-99.99,,,-99.99,meteohub,2013-01-29 01:02:00,
2013-01-29 01:07:00,50.4,43.7,29.34,North,-999,-999.0,-999.0,78,-99.99,,,-99.99,meteohub,2013-01-29 01:07:00,
2013-01-29 01:12:00,50.4,43.7,29.34,North,-999,-999.0,-999.0,78,-99.99,,,-99.99,meteohub,2013-01-29 01:12:00,
2013-01-29 01:17:00,50.4,43.5,29.36,North,-999,-999.0,-999.0,77,-99.99,,,-99.99,meteohub,2013-01-29 01:17:00,
2013-01-29 01:22:00,50.4,43.5,29.36,North,-999,-999.0,-999.0,77,-99.99,,,-99.99,meteohub,2013-01-29 01:22:00,
2013-01-29 01:27:00,50.4,43.2,29.36,North,-999,-999.0,-999.0,76,-99.99,,,-99.99,meteohub,2013-01-29 01:27:00,
2013-01-29 01:32:00,50.4,43.2,29.34,North,-999,-999.0,-999.0,76,-99.99,,,-99.99,meteohub,2013-01-29 01:32:00,
2013-01-29 01:37:00,50.4,43.2,29.34,North,-999,-999.0,-999.0,76,-99.99,,,-99.99,meteohub,2013-01-29 01:37:00,
2013-01-29 01:42:00,50.4,43.2,29.34,North,-999,-999.0,-999.0,76,-99.99,,,-99.99,meteohub,2013-01-29 01:42:00,
2013-01-29 01:47:00,50.4,43.2,29.36,North,-999,-999.0,-999.0,76,-99.99,,,-99.99,meteohub,2013-01-29 01:47:00,
2013-01-29 01:52:00,50.4,43.2,29.36,North,-999,-999.0,-999.0,76,-99.99,,,-99.99,meteohub,2013-01-29 01:52:00,
2013-01-29 01:57:00,50.2,43.0,29.36,North,-999,-999.0,-999.0,76,-99.99,,,-99.99,meteohub,2013-01-29 01:57:00,
2013-01-29 02:02:00,50.4,43.2,29.36,North,-999,-999.0,-999.0,76,-99.99,,,-99.99,meteohub,2013-01-29 02:02:00,
2013-01-29 02:07:00,50.2,43.0,29.36,North,-999,-999.0,-999.0,76,-99.99,,,-99.99,meteohub,2013-01-29 02:07:00,
2013-01-29 02:12:00,50.2,43.3,29.36,North,-999,-999.0,-999.0,77,-99.99,,,-99.99,meteohub,2013-01-29 02:12:00,
2013-01-29 02:17:00,50.2,43.5,29.36,North,-999,-999.0,-999.0,78,-99.99,,,-99.99,meteohub,2013-01-29 02:17:00,
2013-01-29 02:22:00,50.2,43.5,29.36,North,-999,-999.0,-999.0,78,-99.99,,,-99.99,meteohub,2013-01-29 02:22:00,
2013-01-29 02:27:00,50.2,43.9,29.36,North,-999,-999.0,-999.0,79,-99.99,,,-99.99,meteohub,2013-01-29 02:27:00,
2013-01-29 02:32:00,50.0,44.4,29.36,North,-999,-999.0,-999.0,81,-99.99,,,-99.99,meteohub,2013-01-29 02:32:00,
2013-01-29 02:37:00,49.8,44.6,29.36,North,-999,-999.0,-999.0,82,-99.99,,,-99.99,meteohub,2013-01-29 02:37:00,
2013-01-29 02:42:00,49.6,45.0,29.36,North,-999,-999.0,-999.0,84,-99.99,,,-99.99,meteohub,2013-01-29 02:42:00,
2013-01-29 02:47:00,49.6,45.3,29.36,North,-999,-999.0,-999.0,85,-99.99,,,-99.99,meteohub,2013-01-29 02:47:00,
2013-01-29 02:52:00,49.5,45.5,29.36,North,-999,-999.0,-999.0,86,-99.99,,,-99.99,meteohub,2013-01-29 02:52:00,
2013-01-29 02:57:00,49.5,45.5,29.36,North,-999,-999.0,-999.0,86,-99.99,,,-99.99,meteohub,2013-01-29 02:57:00,
2013-01-29 03:02:00,49.5,45.7,29.36,North,-999,-999.0,-999.0,87,-99.99,,,-99.99,meteohub,2013-01-29 03:02:00,
2013-01-29 03:07:00,49.5,45.7,29.36,North,-999,-999.0,-999.0,87,-99.99,,,-99.99,meteohub,2013-01-29 03:07:00,
2013-01-29 03:12:00,49.3,45.9,29.36,North,-999,-999.0,-999.0,88,-99.99,,,-99.99,meteohub,2013-01-29 03:12:00,
2013-01-29 03:17:00,49.5,46.4,29.36,North,-999,-999.0,-999.0,89,-99.99,,,-99.99,meteohub,2013-01-29 03:17:00,
2013-01-29 03:22:00,49.5,46.4,29.36,North,-999,-999.0,-999.0,89,-99.99,,,-99.99,meteohub,2013-01-29 03:22:00,
2013-01-29 03:32:00,49.5,46.4,29.36,North,-999,-999.0,-999.0,89,-99.99,,,-99.99,meteohub,2013-01-29 03:32:00,
2013-01-29 03:37:00,49.3,46.2,29.36,North,-999,-999.0,-999.0,89,-99.99,,,-99.99,meteohub,2013-01-29 03:37:00,
2013-01-29 03:42:00,49.3,46.2,29.36,North,-999,-999.0,-999.0,89,-99.99,,,-99.99,meteohub,2013-01-29 03:42:00,
2013-01-29 03:47:00,49.1,46.2,29.36,North,-999,-999.0,-999.0,90,-99.99,,,-99.99,meteohub,2013-01-29 03:47:00,
2013-01-29 03:52:00,49.1,46.2,29.36,North,-999,-999.0,-999.0,90,-99.99,,,-99.99,meteohub,2013-01-29 03:52:00,
2013-01-29 03:57:00,48.9,46.4,29.36,North,-999,-999.0,-999.0,91,-99.99,,,-99.99,meteohub,2013-01-29 03:57:00,
2013-01-29 04:02:00,48.9,46.8,29.36,North,-999,-999.0,-999.0,92,-99.99,,,-99.99,meteohub,2013-01-29 04:02:00,
2013-01-29 04:07:00,48.9,46.8,29.36,North,-999,-999.0,-999.0,92,-99.99,,,-99.99,meteohub,2013-01-29 04:07:00,
2013-01-29 04:12:00,48.9,46.9,29.36,North,-999,-999.0,-999.0,93,-99.99,,,-99.99,meteohub,2013-01-29 04:12:00,
2013-01-29 04:17:00,48.7,46.8,29.34,North,-999,-999.0,-999.0,93,-99.99,,,-99.99,meteohub,2013-01-29 04:17:00,
2013-01-29 04:22:00,48.7,46.8,29.34,North,-999,-999.0,-999.0,93,-99.99,,,-99.99,meteohub,2013-01-29 04:22:00,
2013-01-29 04:27:00,48.7,47.1,29.34,North,-999,-999.0,-999.0,94,-99.99,,,-99.99,meteohub,2013-01-29 04:27:00,
2013-01-29 04:32:00,48.7,47.3,29.34,North,-999,-999.0,-999.0,95,-99.99,,,-99.99,meteohub,2013-01-29 04:32:00,
2013-01-29 04:37:00,48.6,47.1,29.34,North,-999,-999.0,-999.0,95,-99.99,,,-99.99,meteohub,2013-01-29 04:37:00,
2013-01-29 04:42:00,48.4,46.9,29.34,North,-999,-999.0,-999.0,95,-99.99,,,-99.99,meteohub,2013-01-29 04:42:00,
2013-01-29 04:47:00,48.4,47.3,29.34,North,-999,-999.0,-999.0,96,-99.99,,,-99.99,meteohub,2013-01-29 04:47:00,
2013-01-29 04:52:00,48.4,47.3,29.34,North,-999,-999.0,-999.0,96,-99.99,,,-99.99,meteohub,2013-01-29 04:52:00,
2013-01-29 04:57:00,48.2,47.1,29.34,North,-999,-999.0,-999.0,96,-99.99,,,-99.99,meteohub,2013-01-29 04:57:00,
2013-01-29 05:02:00,48.4,47.5,29.34,North,-999,-999.0,-999.0,97,-99.99,,,-99.99,meteohub,2013-01-29 05:02:00,
2013-01-29 05:07:00,48.4,47.5,29.34,North,-999,-999.0,-999.0,97,-99.99,,,-99.99,meteohub,2013-01-29 05:07:00,
2013-01-29 05:12:00,48.4,47.8,29.34,North,-999,-999.0,-999.0,98,-99.99,,,-99.99,meteohub,2013-01-29 05:12:00,
2013-01-29 05:17:00,48.4,47.8,29.34,North,-999,-999.0,-999.0,98,-99.99,,,-99.99,meteohub,2013-01-29 05:17:00,
2013-01-29 05:22:00,48.4,47.8,29.34,North,-999,-999.0,-999.0,98,-99.99,,,-99.99,meteohub,2013-01-29 05:22:00,
2013-01-29 05:27:00,48.4,47.8,29.34,North,-999,-999.0,-999.0,98,-99.99,,,-99.99,meteohub,2013-01-29 05:27:00,
2013-01-29 05:32:00,48.4,47.5,29.34,North,-999,-999.0,-999.0,97,-99.99,,,-99.99,meteohub,2013-01-29 05:32:00,
2013-01-29 05:37:00,48.4,47.5,29.34,North,-999,-999.0,-999.0,97,-99.99,,,-99.99,meteohub,2013-01-29 05:37:00,
2013-01-29 05:42:00,48.2,47.3,29.34,North,-999,-999.0,-999.0,97,-99.99,,,-99.99,meteohub,2013-01-29 05:42:00,
2013-01-29 05:52:00,48.2,47.1,29.34,North,-999,-999.0,-999.0,96,-99.99,,,-99.99,meteohub,2013-01-29 05:52:00,
2013-01-29 05:57:00,48.2,47.3,29.34,North,-999,-999.0,-999.0,97,-99.99,,,-99.99,meteohub,2013-01-29 05:57:00,
2013-01-29 06:02:00,48.2,47.3,29.34,North,-999,-999.0,-999.0,97,-99.99,,,-99.99,meteohub,2013-01-29 06:02:00,
2013-01-29 06:07:00,48.4,47.5,29.34,North,-999,-999.0,-999.0,97,-99.99,,,-99.99,meteohub,2013-01-29 06:07:00,
2013-01-29 06:12:00,48.4,47.8,29.34,North,-999,-999.0,-999.0,98,-99.99,,,-99.99,meteohub,2013-01-29 06:12:00,
2013-01-29 06:17:00,48.2,47.7,29.34,North,-999,-999.0,-999.0,98,-99.99,,,-99.99,meteohub,2013-01-29 06:17:00,
2013-01-29 06:22:00,48.4,47.8,29.34,North,-999,-999.0,-999.0,98,-99.99,,,-99.99,meteohub,2013-01-29 06:22:00,
2013-01-29 06:27:00,48.4,47.8,29.34,North,-999,-999.0,-999.0,98,-99.99,,,-99.99,meteohub,2013-01-29 06:27:00,
2013-01-29 06:32:00,48.4,47.8,29.34,North,-999,-999.0,-999.0,98,-99.99,,,-99.99,meteohub,2013-01-29 06:32:00,
2013-01-29 06:37:00,48.2,47.7,29.34,North,-999,-999.0,-999.0,98,-99.99,,,-99.99,meteohub,2013-01-29 06:37:00,
2013-01-29 06:42:00,48.2,47.7,29.34,North,-999,-999.0,-999.0,98,-99.99,,,-99.99,meteohub,2013-01-29 06:42:00,
2013-01-29 06:47:00,48.2,47.7,29.34,North,-999,-999.0,-999.0,98,-99.99,,,-99.99,meteohub,2013-01-29 06:47:00,
2013-01-29 06:52:00,48.2,47.7,29.34,North,-999,-999.0,-999.0,98,-99.99,,,-99.99,meteohub,2013-01-29 06:52:00,
2013-01-29 06:57:00,48.2,47.7,29.34,North,-999,-999.0,-999.0,98,-99.99,,,-99.99,meteohub,2013-01-29 06:57:00,
2013-01-29 07:02:00,48.2,47.7,29.34,North,-999,-999.0,-999.0,98,-99.99,,,-99.99,meteohub,2013-01-29 07:02:00,
2013-01-29 07:07:00,48.2,47.7,29.34,North,-999,-999.0,-999.0,98,-99.99,,,-99.99,meteohub,2013-01-29 07:07:00,
2013-01-29 07:12:00,48.2,47.7,29.34,North,-999,-999.0,-999.0,98,-99.99,,,-99.99,meteohub,2013-01-29 07:12:00,
2013-01-29 07:17:00,48.2,47.7,29.34,North,-999,-999.0,-999.0,98,-99.99,,,-99.99,meteohub,2013-01-29 07:17:00,
2013-01-29 07:22:00,48.2,47.7,29.34,North,-999,-999.0,-999.0,98,-99.99,,,-99.99,meteohub,2013-01-29 07:22:00,
2013-01-29 07:27:00,48.2,47.7,29.34,North,-999,-999.0,-999.0,98,-99.99,,,-99.99,meteohub,2013-01-29 07:27:00,
2013-01-29 07:32:00,48.2,47.7,29.34,North,-999,-999.0,-999.0,98,-99.99,,,-99.99,meteohub,2013-01-29 07:32:00,
2013-01-29 07:37:00,48.2,47.7,29.34,North,-999,-999.0,-999.0,98,-99.99,,,-99.99,meteohub,2013-01-29 07:37:00,
2013-01-29 07:42:00,48.2,47.7,29.34,North,-999,-999.0,-999.0,98,-99.99,,,-99.99,meteohub,2013-01-29 07:42:00,
2013-01-29 07:47:00,48.2,47.7,29.34,North,-999,-999.0,-999.0,98,-99.99,,,-99.99,meteohub,2013-01-29 07:47:00,
2013-01-29 07:52:00,48.2,47.7,29.34,North,-999,-999.0,-999.0,98,-99.99,,,-99.99,meteohub,2013-01-29 07:52:00,
2013-01-29 07:57:00,48.2,47.7,29.34,North,-999,-999.0,-999.0,98,-99.99,,,-99.99,meteohub,2013-01-29 07:57:00,
2013-01-29 08:02:00,48.4,47.8,29.34,North,-999,-999.0,-999.0,98,-99.99,,,-99.99,meteohub,2013-01-29 08:02:00,
2013-01-29 08:07:00,48.4,47.8,29.34,North,-999,-999.0,-999.0,98,-99.99,,,-99.99,meteohub,2013-01-29 08:07:00,
2013-01-29 08:12:00,48.4,47.8,29.34,North,-999,-999.0,-999.0,98,-99.99,,,-99.99,meteohub,2013-01-29 08:12:00,
2013-01-29 08:17:00,48.6,48.0,29.36,North,-999,-999.0,-999.0,98,-99.99,,,-99.99,meteohub,2013-01-29 08:17:00,
2013-01-29 08:22:00,48.6,48.0,29.36,North,-999,-999.0,-999.0,98,-99.99,,,-99.99,meteohub,2013-01-29 08:22:00,
2013-01-29 08:27:00,48.7,48.2,29.36,North,-999,-999.0,-999.0,98,-99.99,,,-99.99,meteohub,2013-01-29 08:27:00,
2013-01-29 08:32:00,48.7,48.2,29.34,North,-999,-999.0,-999.0,98,-99.99,,,-99.99,meteohub,2013-01-29 08:32:00,
2013-01-29 08:37:00,48.7,48.2,29.34,North,-999,-999.0,-999.0,98,-99.99,,,-99.99,meteohub,2013-01-29 08:37:00,
2013-01-29 08:42:00,48.9,48.4,29.34,North,-999,-999.0,-999.0,98,-99.99,,,-99.99,meteohub,2013-01-29 08:42:00,
2013-01-29 08:47:00,49.1,48.6,29.34,North,-999,-999.0,-999.0,98,-99.99,,,-99.99,meteohub,2013-01-29 08:47:00,
2013-01-29 08:52:00,49.3,48.7,29.34,North,-999,-999.0,-999.0,98,-99.99,,,-99.99,meteohub,2013-01-29 08:52:00,
2013-01-29 08:57:00,49.6,49.1,29.34,North,-999,-999.0,-999.0,98,-99.99,,,-99.99,meteohub,2013-01-29 08:57:00,
2013-01-29 09:02:00,49.8,49.3,29.34,North,-999,-999.0,-999.0,98,-99.99,,,-99.99,meteohub,2013-01-29 09:02:00,
2013-01-29 09:07:00,50.2,49.6,29.34,North,-999,-999.0,-999.0,98,-99.99,,,-99.99,meteohub,2013-01-29 09:07:00,
2013-01-29 09:12:00,50.5,50.0,29.34,North,-999,-999.0,-999.0,98,-99.99,,,-99.99,meteohub,2013-01-29 09:12:00,
2013-01-29 09:17:00,50.9,50.4,29.34,North,-999,-999.0,-999.0,98,-99.99,,,-99.99,meteohub,2013-01-29 09:17:00,
2013-01-29 09:22:00,51.3,50.7,29.34,North,-999,-999.0,-999.0,98,-99.99,,,-99.99,meteohub,2013-01-29 09:22:00,
2013-01-29 09:27:00,51.8,51.3,29.34,North,-999,-999.0,-999.0,98,-99.99,,,-99.99,meteohub,2013-01-29 09:27:00,
2013-01-29 09:32:00,52.2,51.6,29.34,North,-999,-999.0,-999.0,98,-99.99,,,-99.99,meteohub,2013-01-29 09:32:00,
2013-01-29 09:37:00,52.5,52.0,29.34,North,-999,-999.0,-999.0,98,-99.99,,,-99.99,meteohub,2013-01-29 09:37:00,
2013-01-29 09:42:00,52.7,52.2,29.34,North,-999,-999.0,-999.0,98,-99.99,,,-99.99,meteohub,2013-01-29 09:42:00,
2013-01-29 09:47:00,53.1,52.5,29.34,North,-999,-999.0,-999.0,98,-99.99,,,-99.99,meteohub,2013-01-29 09:47:00,
2013-01-29 09:52:00,53.2,52.7,29.34,North,-999,-999.0,-999.0,98,-99.99,,,-99.99,meteohub,2013-01-29 09:52:00,
2013-01-29 09:57:00,53.4,52.9,29.34,North,-999,-999.0,-999.0,98,-99.99,,,-99.99,meteohub,2013-01-29 09:57:00,
2013-01-29 10:02:00,53.8,53.2,29.34,North,-999,-999.0,-999.0,98,-99.99,,,-99.99,meteohub,2013-01-29 10:02:00,
2013-01-29 10:07:00,54.0,53.4,29.34,North,-999,-999.0,-999.0,98,-99.99,,,-99.99,meteohub,2013-01-29 10:07:00,
2013-01-29 10:12:00,54.1,53.6,29.34,North,-999,-999.0,-999.0,98,-99.99,,,-99.99,meteohub,2013-01-29 10:12:00,
2013-01-29 10:17:00,54.3,53.8,29.34,North,-999,-999.0,-999.0,98,-99.99,,,-99.99,meteohub,2013-01-29 10:17:00,
2013-01-29 10:22:00,54.3,53.8,29.34,North,-999,-999.0,-999.0,98,-99.99,,,-99.99,meteohub,2013-01-29 10:22:00,
2013-01-29 10:27:00,54.5,53.6,29.34,North,-999,-999.0,-999.0,97,-99.99,,,-99.99,meteohub,2013-01-29 10:27:00,
2013-01-29 10:32:00,54.7,53.6,29.34,North,-999,-999.0,-999.0,96,-99.99,,,-99.99,meteohub,2013-01-29 10:32:00,
2013-01-29 10:37:00,54.7,53.2,29.34,North,-999,-999.0,-999.0,95,-99.99,,,-99.99,meteohub,2013-01-29 10:37:00,
2013-01-29 10:42:00,54.7,53.2,29.34,North,-999,-999.0,-999.0,95,-99.99,,,-99.99,meteohub,2013-01-29 10:42:00,
2013-01-29 10:47:00,54.9,53.2,29.34,North,-999,-999.0,-999.0,94,-99.99,,,-99.99,meteohub,2013-01-29 10:47:00,
2013-01-29 10:52:00,54.9,53.2,29.34,North,-999,-999.0,-999.0,94,-99.99,,,-99.99,meteohub,2013-01-29 10:52:00,
2013-01-29 10:57:00,54.9,53.2,29.34,North,-999,-999.0,-999.0,94,-99.99,,,-99.99,meteohub,2013-01-29 10:57:00,
2013-01-29 11:02:00,54.9,52.9,29.36,North,-999,-999.0,-999.0,93,-99.99,,,-99.99,meteohub,2013-01-29 11:02:00,
2013-01-29 11:07:00,54.9,52.9,29.36,North,-999,-999.0,-999.0,93,-99.99,,,-99.99,meteohub,2013-01-29 11:07:00,
2013-01-29 11:12:00,55.0,53.1,29.36,North,-999,-999.0,-999.0,93,-99.99,,,-99.99,meteohub,2013-01-29 11:12:00,
2013-01-29 11:17:00,55.0,53.1,29.36,North,-999,-999.0,-999.0,93,-99.99,,,-99.99,meteohub,2013-01-29 11:17:00,
2013-01-29 11:22:00,55.0,53.1,29.36,North,-999,-999.0,-999.0,93,-99.99,,,-99.99,meteohub,2013-01-29 11:22:00,
2013-01-29 11:27:00,55.0,53.1,29.36,North,-999,-999.0,-999.0,93,-99.99,,,-99.99,meteohub,2013-01-29 11:27:00,
2013-01-29 11:32:00,55.0,53.1,29.34,North,-999,-999.0,-999.0,93,-99.99,,,-99.99,meteohub,2013-01-29 11:32:00,
2013-01-29 11:37:00,55.2,53.2,29.34,North,-999,-999.0,-999.0,93,-99.99,,,-99.99,meteohub,2013-01-29 11:37:00,
2013-01-29 11:42:00,55.2,53.2,29.34,North,-999,-999.0,-999.0,93,-99.99,,,-99.99,meteohub,2013-01-29 11:42:00,
2013-01-29 11:47:00,55.0,53.1,29.36,North,-999,-999.0,-999.0,93,-99.99,,,-99.99,meteohub,2013-01-29 11:47:00,
2013-01-29 11:52:00,55.0,53.1,29.36,North,-999,-999.0,-999.0,93,-99.99,,,-99.99,meteohub,2013-01-29 11:52:00,
2013-01-29 11:57:00,55.0,53.1,29.36,North,-999,-999.0,-999.0,93,-99.99,,,-99.99,meteohub,2013-01-29 11:57:00,
2013-01-29 12:02:00,55.0,53.4,29.36,North,-999,-999.0,-999.0,94,-99.99,,,-99.99,meteohub,2013-01-29 12:02:00,
2013-01-29 12:07:00,54.9,53.2,29.36,North,-999,-999.0,-999.0,94,-99.99,,,-99.99,meteohub,2013-01-29 12:07:00,
2013-01-29 12:12:00,54.9,53.2,29.36,North,-999,-999.0,-999.0,94,-99.99,,,-99.99,meteohub,2013-01-29 12:12:00,
2013-01-29 12:17:00,54.9,53.2,29.36,North,-999,-999.0,-999.0,94,-99.99,,,-99.99,meteohub,2013-01-29 12:17:00,
2013-01-29 12:22:00,54.9,53.4,29.36,North,-999,-999.0,-999.0,95,-99.99,,,-99.99,meteohub,2013-01-29 12:22:00,
2013-01-29 12:27:00,54.9,53.4,29.36,North,-999,-999.0,-999.0,95,-99.99,,,-99.99,meteohub,2013-01-29 12:27:00,
2013-01-29 12:32:00,54.9,53.4,29.34,North,-999,-999.0,-999.0,95,-99.99,,,-99.99,meteohub,2013-01-29 12:32:00,
2013-01-29 12:37:00,55.0,53.6,29.34,North,-999,-999.0,-999.0,95,-99.99,,,-99.99,meteohub,2013-01-29 12:37:00,
2013-01-29 12:42:00,55.0,53.6,29.34,North,-999,-999.0,-999.0,95,-99.99,,,-99.99,meteohub,2013-01-29 12:42:00,
2013-01-29 12:52:00,54.9,53.4,29.34,North,-999,-999.0,-999.0,95,-99.99,,,-99.99,meteohub,2013-01-29 12:52:00,
2013-01-29 12:57:00,54.9,53.4,29.34,North,-999,-999.0,-999.0,95,-99.99,,,-99.99,meteohub,2013-01-29 12:57:00,
2013-01-29 13:02:00,54.7,53.6,29.34,North,-999,-999.0,-999.0,96,-99.99,,,-99.99,meteohub,2013-01-29 13:02:00,
2013-01-29 13:07:00,54.7,53.8,29.34,North,-999,-999.0,-999.0,97,-99.99,,,-99.99,meteohub,2013-01-29 13:07:00,
2013-01-29 13:12:00,54.7,53.8,29.34,North,-999,-999.0,-999.0,97,-99.99,,,-99.99,meteohub,2013-01-29 13:12:00,
2013-01-29 13:17:00,54.9,54.3,29.34,North,-999,-999.0,-999.0,98,-99.99,,,-99.99,meteohub,2013-01-29 13:17:00,
2013-01-29 13:22:00,55.0,54.5,29.34,North,-999,-999.0,-999.0,98,-99.99,,,-99.99,meteohub,2013-01-29 13:22:00,
2013-01-29 13:27:00,55.2,54.3,29.34,North,-999,-999.0,-999.0,97,-99.99,,,-99.99,meteohub,2013-01-29 13:27:00,
2013-01-29 13:32:00,55.2,54.3,29.34,North,-999,-999.0,-999.0,97,-99.99,,,-99.99,meteohub,2013-01-29 13:32:00,
2013-01-29 13:37:00,55.4,54.3,29.34,North,-999,-999.0,-999.0,96,-99.99,,,-99.99,meteohub,2013-01-29 13:37:00,
2013-01-29 13:42:00,55.4,54.0,29.34,North,-999,-999.0,-999.0,95,-99.99,,,-99.99,meteohub,2013-01-29 13:42:00,
2013-01-29 13:47:00,55.6,54.0,29.34,North,-999,-999.0,-999.0,94,-99.99,,,-99.99,meteohub,2013-01-29 13:47:00,
2013-01-29 13:52:00,55.8,54.1,29.34,North,-999,-999.0,-999.0,94,-99.99,,,-99.99,meteohub,2013-01-29 13:52:00,
2013-01-29 13:57:00,55.9,54.0,29.34,North,-999,-999.0,-999.0,93,-99.99,,,-99.99,meteohub,2013-01-29 13:57:00,
2013-01-29 14:02:00,55.9,54.0,29.34,North,-999,-999.0,-999.0,93,-99.99,,,-99.99,meteohub,2013-01-29 14:02:00,
2013-01-29 14:07:00,55.9,53.6,29.34,North,-999,-999.0,-999.0,92,-99.99,,,-99.99,meteohub,2013-01-29 14:07:00,
2013-01-29 14:12:00,55.9,53.4,29.34,North,-999,-999.0,-999.0,91,-99.99,,,-99.99,meteohub,2013-01-29 14:12:00,
2013-01-29 14:17:00,55.9,53.1,29.34,North,-999,-999.0,-999.0,90,-99.99,,,-99.99,meteohub,2013-01-29 14:17:00,
2013-01-29 14:22:00,55.9,53.1,29.34,North,-999,-999.0,-999.0,90,-99.99,,,-99.99,meteohub,2013-01-29 14:22:00,
2013-01-29 14:27:00,55.9,53.1,29.34,North,-999,-999.0,-999.0,90,-99.99,,,-99.99,meteohub,2013-01-29 14:27:00,
2013-01-29 14:32:00,55.9,52.7,29.34,North,-999,-999.0,-999.0,89,-99.99,,,-99.99,meteohub,2013-01-29 14:32:00,
2013-01-29 14:37:00,55.9,53.1,29.34,North,-999,-999.0,-999.0,90,-99.99,,,-99.99,meteohub,2013-01-29 14:37:00,
2013-01-29 14:42:00,55.9,53.1,29.34,North,-999,-999.0,-999.0,90,-99.99,,,-99.99,meteohub,2013-01-29 14:42:00,
2013-01-29 14:47:00,55.9,53.1,29.34,North,-999,-999.0,-999.0,90,-99.99,,,-99.99,meteohub,2013-01-29 14:47:00,
2013-01-29 14:52:00,55.9,53.1,29.34,North,-999,-999.0,-999.0,90,-99.99,,,-99.99,meteohub,2013-01-29 14:52:00,
2013-01-29 14:57:00,55.9,52.7,29.34,North,-999,-999.0,-999.0,89,-99.99,,,-99.99,meteohub,2013-01-29 14:57:00,
2013-01-29 15:02:00,55.9,52.7,29.34,North,-999,-999.0,-999.0,89,-99.99,,,-99.99,meteohub,2013-01-29 15:02:00,
2013-01-29 15:07:00,55.9,52.7,29.34,North,-999,-999.0,-999.0,89,-99.99,,,-99.99,meteohub,2013-01-29 15:07:00,
2013-01-29 15:12:00,55.8,52.5,29.34,North,-999,-999.0,-999.0,89,-99.99,,,-99.99,meteohub,2013-01-29 15:12:00,
2013-01-29 15:17:00,55.9,52.7,29.31,North,-999,-999.0,-999.0,89,-99.99,,,-99.99,meteohub,2013-01-29 15:17:00,
2013-01-29 15:22:00,55.9,52.7,29.31,North,-999,-999.0,-999.0,89,-99.99,,,-99.99,meteohub,2013-01-29 15:22:00,
2013-01-29 15:27:00,55.9,52.7,29.31,North,-999,-999.0,-999.0,89,-99.99,,,-99.99,meteohub,2013-01-29 15:27:00,
2013-01-29 15:32:00,55.9,52.5,29.34,North,-999,-999.0,-999.0,88,-99.99,,,-99.99,meteohub,2013-01-29 15:32:00,
2013-01-29 15:37:00,56.1,52.7,29.34,North,-999,-999.0,-999.0,88,-99.99,,,-99.99,meteohub,2013-01-29 15:37:00,
2013-01-29 15:42:00,56.1,52.7,29.34,North,-999,-999.0,-999.0,88,-99.99,,,-99.99,meteohub,2013-01-29 15:42:00,
2013-01-29 15:47:00,56.1,52.7,29.34,North,-999,-999.0,-999.0,88,-99.99,,,-99.99,meteohub,2013-01-29 15:47:00,
2013-01-29 15:52:00,55.9,52.5,29.34,North,-999,-999.0,-999.0,88,-99.99,,,-99.99,meteohub,2013-01-29 15:52:00,
2013-01-29 15:57:00,55.9,52.7,29.34,North,-999,-999.0,-999.0,89,-99.99,,,-99.99,meteohub,2013-01-29 15:57:00,
2013-01-29 16:02:00,55.9,52.7,29.31,North,-999,-999.0,-999.0,89,-99.99,,,-99.99,meteohub,2013-01-29 16:02:00,
2013-01-29 16:07:00,55.9,52.7,29.31,North,-999,-999.0,-999.0,89,-99.99,,,-99.99,meteohub,2013-01-29 16:07:00,
2013-01-29 16:12:00,55.9,52.7,29.31,North,-999,-999.0,-999.0,89,-99.99,,,-99.99,meteohub,2013-01-29 16:12:00,
2013-01-29 16:17:00,55.9,52.7,29.31,North,-999,-999.0,-999.0,89,-99.99,,,-99.99,meteohub,2013-01-29 16:17:00,
2013-01-29 16:22:00,55.9,52.7,29.31,North,-999,-999.0,-999.0,89,-99.99,,,-99.99,meteohub,2013-01-29 16:22:00,
2013-01-29 16:27:00,55.9,52.7,29.31,North,-999,-999.0,-999.0,89,-99.99,,,-99.99,meteohub,2013-01-29 16:27:00,
2013-01-29 16:32:00,55.9,52.7,29.31,North,-999,-999.0,-999.0,89,-99.99,,,-99.99,meteohub,2013-01-29 16:32:00,
2013-01-29 16:37:00,55.9,52.7,29.31,North,-999,-999.0,-999.0,89,-99.99,,,-99.99,meteohub,2013-01-29 16:37:00,
2013-01-29 16:42:00,55.9,52.5,29.31,North,-999,-999.0,-999.0,88,-99.99,,,-99.99,meteohub,2013-01-29 16:42:00,
2013-01-29 16:47:00,55.9,52.5,29.34,North,-999,-999.0,-999.0,88,-99.99,,,-99.99,meteohub,2013-01-29 16:47:00,
2013-01-29 16:52:00,55.9,52.5,29.34,North,-999,-999.0,-999.0,88,-99.99,,,-99.99,meteohub,2013-01-29 16:52:00,
2013-01-29 16:57:00,55.9,52.5,29.34,North,-999,-999.0,-999.0,88,-99.99,,,-99.99,meteohub,2013-01-29 16:57:00,
2013-01-29 17:02:00,55.8,52.5,29.34,North,-999,-999.0,-999.0,89,-99.99,,,-99.99,meteohub,2013-01-29 17:02:00,
2013-01-29 17:07:00,55.8,52.5,29.34,North,-999,-999.0,-999.0,89,-99.99,,,-99.99,meteohub,2013-01-29 17:07:00,
2013-01-29 17:12:00,55.4,52.5,29.34,North,-999,-999.0,-999.0,90,-99.99,,,-99.99,meteohub,2013-01-29 17:12:00,
2013-01-29 17:17:00,55.4,52.5,29.34,North,-999,-999.0,-999.0,90,-99.99,,,-99.99,meteohub,2013-01-29 17:17:00,
2013-01-29 17:22:00,55.4,52.9,29.34,North,-999,-999.0,-999.0,91,-99.99,,,-99.99,meteohub,2013-01-29 17:22:00,
2013-01-29 17:27:00,55.2,52.9,29.34,North,-999,-999.0,-999.0,92,-99.99,,,-99.99,meteohub,2013-01-29 17:27:00,
2013-01-29 17:32:00,55.0,52.7,29.34,North,-999,-999.0,-999.0,92,-99.99,,,-99.99,meteohub,2013-01-29 17:32:00,
2013-01-29 17:37:00,55.2,52.9,29.34,North,-999,-999.0,-999.0,92,-99.99,,,-99.99,meteohub,2013-01-29 17:37:00,
2013-01-29 17:42:00,55.2,52.9,29.34,North,-999,-999.0,-999.0,92,-99.99,,,-99.99,meteohub,2013-01-29 17:42:00,
2013-01-29 17:47:00,55.2,52.9,29.31,North,-999,-999.0,-999.0,92,-99.99,,,-99.99,meteohub,2013-01-29 17:47:00,
2013-01-29 17:52:00,55.2,52.9,29.31,North,-999,-999.0,-999.0,92,-99.99,,,-99.99,meteohub,2013-01-29 17:52:00,
2013-01-29 17:57:00,55.2,52.9,29.31,North,-999,-999.0,-999.0,92,-99.99,,,-99.99,meteohub,2013-01-29 17:57:00,
2013-01-29 18:02:00,55.0,52.7,29.31,North,-999,-999.0,-999.0,92,-99.99,,,-99.99,meteohub,2013-01-29 18:02:00,
2013-01-29 18:12:00,55.0,53.1,29.31,North,-999,-999.0,-999.0,93,-99.99,,,-99.99,meteohub,2013-01-29 18:12:00,
2013-01-29 18:17:00,55.0,53.1,29.31,North,-999,-999.0,-999.0,93,-99.99,,,-99.99,meteohub,2013-01-29 18:17:00,
2013-01-29 18:22:00,55.0,53.1,29.31,North,-999,-999.0,-999.0,93,-99.99,,,-99.99,meteohub,2013-01-29 18:22:00,
2013-01-29 18:27:00,54.9,52.9,29.31,North,-999,-999.0,-999.0,93,-99.99,,,-99.99,meteohub,2013-01-29 18:27:00,
2013-01-29 18:32:00,54.9,53.2,29.31,North,-999,-999.0,-999.0,94,-99.99,,,-99.99,meteohub,2013-01-29 18:32:00,
2013-01-29 18:37:00,54.9,53.2,29.31,North,-999,-999.0,-999.0,94,-99.99,,,-99.99,meteohub,2013-01-29 18:37:00,
2013-01-29 18:42:00,54.7,53.1,29.31,North,-999,-999.0,-999.0,94,-99.99,,,-99.99,meteohub,2013-01-29 18:42:00,
2013-01-29 18:47:00,54.7,53.1,29.31,North,-999,-999.0,-999.0,94,-99.99,,,-99.99,meteohub,2013-01-29 18:47:00,
2013-01-29 18:52:00,54.5,53.1,29.31,North,-999,-999.0,-999.0,95,-99.99,,,-99.99,meteohub,2013-01-29 18:52:00,
2013-01-29 18:57:00,54.5,53.1,29.31,North,-999,-999.0,-999.0,95,-99.99,,,-99.99,meteohub,2013-01-29 18:57:00,
2013-01-29 19:07:00,54.0,52.9,29.31,North,-999,-999.0,-999.0,96,-99.99,,,-99.99,meteohub,2013-01-29 19:07:00,
2013-01-29 19:12:00,53.8,52.9,29.31,North,-999,-999.0,-999.0,97,-99.99,,,-99.99,meteohub,2013-01-29 19:12:00,
2013-01-29 19:17:00,53.8,53.2,29.31,North,-999,-999.0,-999.0,98,-99.99,,,-99.99,meteohub,2013-01-29 19:17:00,
2013-01-29 19:22:00,53.8,53.2,29.31,North,-999,-999.0,-999.0,98,-99.99,,,-99.99,meteohub,2013-01-29 19:22:00,
2013-01-29 19:27:00,53.8,53.2,29.31,North,-999,-999.0,-999.0,98,-99.99,,,-99.99,meteohub,2013-01-29 19:27:00,
2013-01-29 19:32:00,53.6,53.1,29.31,North,-999,-999.0,-999.0,98,-99.99,,,-99.99,meteohub,2013-01-29 19:32:00,
2013-01-29 19:37:00,53.6,53.1,29.31,North,-999,-999.0,-999.0,98,-99.99,,,-99.99,meteohub,2013-01-29 19:37:00,
2013-01-29 19:42:00,53.4,52.9,29.31,North,-999,-999.0,-999.0,98,-99.99,,,-99.99,meteohub,2013-01-29 19:42:00,
2013-01-29 19:47:00,53.4,52.9,29.31,North,-999,-999.0,-999.0,98,-99.99,,,-99.99,meteohub,2013-01-29 19:47:00,
2013-01-29 19:52:00,53.2,52.7,29.31,North,-999,-999.0,-999.0,98,-99.99,,,-99.99,meteohub,2013-01-29 19:52:00,
2013-01-29 19:57:00,53.2,52.7,29.31,North,-999,-999.0,-999.0,98,-99.99,,,-99.99,meteohub,2013-01-29 19:57:00,
2013-01-29 20:02:00,53.2,52.7,29.31,North,-999,-999.0,-999.0,98,-99.99,,,-99.99,meteohub,2013-01-29 20:02:00,
2013-01-29 20:12:00,53.2,52.7,29.31,North,-999,-999.0,-999.0,98,-99.99,,,-99.99,meteohub,2013-01-29 20:12:00,
2013-01-29 20:17:00,53.2,52.7,29.31,North,-999,-999.0,-999.0,98,-99.99,,,-99.99,meteohub,2013-01-29 20:17:00,
2013-01-29 20:22:00,53.2,52.7,29.31,North,-999,-999.0,-999.0,98,-99.99,,,-99.99,meteohub,2013-01-29 20:22:00,
2013-01-29 20:27:00,53.2,52.7,29.31,North,-999,-999.0,-999.0,98,-99.99,,,-99.99,meteohub,2013-01-29 20:27:00,
2013-01-29 20:32:00,53.2,52.7,29.31,North,-999,-999.0,-999.0,98,-99.99,,,-99.99,meteohub,2013-01-29 20:32:00,
2013-01-29 20:37:00,53.2,52.7,29.31,North,-999,-999.0,-999.0,98,-99.99,,,-99.99,meteohub,2013-01-29 20:37:00,
2013-01-29 20:42:00,53.2,52.7,29.31,North,-999,-999.0,-999.0,98,-99.99,,,-99.99,meteohub,2013-01-29 20:42:00,
2013-01-29 20:47:00,53.4,52.9,29.31,North,-999,-999.0,-999.0,98,-99.99,,,-99.99,meteohub,2013-01-29 20:47:00,
2013-01-29 20:52:00,53.2,52.7,29.31,North,-999,-999.0,-999.0,98,-99.99,,,-99.99,meteohub,2013-01-29 20:52:00,
2013-01-29 20:57:00,53.2,52.7,29.31,North,-999,-999.0,-999.0,98,-99.99,,,-99.99,meteohub,2013-01-29 20:57:00,
2013-01-29 21:02:00,53.2,52.7,29.31,North,-999,-999.0,-999.0,98,-99.99,,,-99.99,meteohub,2013-01-29 21:02:00,
2013-01-29 21:07:00,53.4,52.9,29.31,North,-999,-999.0,-999.0,98,-99.99,,,-99.99,meteohub,2013-01-29 21:07:00,
2013-01-29 21:12:00,53.2,52.7,29.31,North,-999,-999.0,-999.0,98,-99.99,,,-99.99,meteohub,2013-01-29 21:12:00,
2013-01-29 21:17:00,53.2,52.7,29.31,North,-999,-999.0,-999.0,98,-99.99,,,-99.99,meteohub,2013-01-29 21:17:00,
2013-01-29 21:22:00,53.2,52.7,29.31,North,-999,-999.0,-999.0,98,-99.99,,,-99.99,meteohub,2013-01-29 21:22:00,
2013-01-29 21:27:00,53.2,52.7,29.31,North,-999,-999.0,-999.0,98,-99.99,,,-99.99,meteohub,2013-01-29 21:27:00,
2013-01-29 21:32:00,53.2,52.7,29.31,North,-999,-999.0,-999.0,98,-99.99,,,-99.99,meteohub,2013-01-29 21:32:00,
2013-01-29 21:37:00,53.2,52.7,29.31,North,-999,-999.0,-999.0,98,-99.99,,,-99.99,meteohub,2013-01-29 21:37:00,
2013-01-29 21:42:00,53.1,52.5,29.31,North,-999,-999.0,-999.0,98,-99.99,,,-99.99,meteohub,2013-01-29 21:42:00,
2013-01-29 21:47:00,53.1,52.5,29.31,North,-999,-999.0,-999.0,98,-99.99,,,-99.99,meteohub,2013-01-29 21:47:00,
2013-01-29 21:52:00,53.1,52.5,29.31,North,-999,-999.0,-999.0,98,-99.99,,,-99.99,meteohub,2013-01-29 21:52:00,
2013-01-29 21:57:00,53.1,52.5,29.31,North,-999,-999.0,-999.0,98,-99.99,,,-99.99,meteohub,2013-01-29 21:57:00,
2013-01-29 22:02:00,52.9,52.3,29.31,North,-999,-999.0,-999.0,98,-99.99,,,-99.99,meteohub,2013-01-29 22:02:00,
2013-01-29 22:07:00,52.9,52.3,29.31,North,-999,-999.0,-999.0,98,-99.99,,,-99.99,meteohub,2013-01-29 22:07:00,
2013-01-29 22:12:00,52.9,52.3,29.31,North,-999,-999.0,-999.0,98,-99.99,,,-99.99,meteohub,2013-01-29 22:12:00,
2013-01-29 22:17:00,52.9,52.3,29.31,North,-999,-999.0,-999.0,98,-99.99,,,-99.99,meteohub,2013-01-29 22:17:00,
2013-01-29 22:22:00,52.9,52.3,29.31,North,-999,-999.0,-999.0,98,-99.99,,,-99.99,meteohub,2013-01-29 22:22:00,
2013-01-29 22:27:00,52.9,52.3,29.31,North,-999,-999.0,-999.0,98,-99.99,,,-99.99,meteohub,2013-01-29 22:27:00,
2013-01-29 22:32:00,52.9,52.3,29.31,North,-999,-999.0,-999.0,98,-99.99,,,-99.99,meteohub,2013-01-29 22:32:00,
2013-01-29 22:37:00,52.9,52.3,29.31,North,-999,-999.0,-999.0,98,-99.99,,,-99.99,meteohub,2013-01-29 22:37:00,
2013-01-29 22:42:00,52.9,52.3,29.31,North,-999,-999.0,-999.0,98,-99.99,,,-99.99,meteohub,2013-01-29 22:42:00,
2013-01-29 22:47:00,52.9,52.3,29.28,North,-999,-999.0,-999.0,98,-99.99,,,-99.99,meteohub,2013-01-29 22:47:00,
2013-01-29 22:52:00,53.1,52.5,29.28,North,-999,-999.0,-999.0,98,-99.99,,,-99.99,meteohub,2013-01-29 22:52:00,
2013-01-29 22:57:00,53.1,52.5,29.28,North,-999,-999.0,-999.0,98,-99.99,,,-99.99,meteohub,2013-01-29 22:57:00,
2013-01-29 23:02:00,53.1,52.5,29.28,North,-999,-999.0,-999.0,98,-99.99,,,-99.99,meteohub,2013-01-29 23:02:00,
2013-01-29 23:07:00,53.1,52.5,29.28,North,-999,-999.0,-999.0,98,-99.99,,,-99.99,meteohub,2013-01-29 23:07:00,
2013-01-29 23:12:00,53.1,52.5,29.28,North,-999,-999.0,-999.0,98,-99.99,,,-99.99,meteohub,2013-01-29 23:12:00,
2013-01-29 23:17:00,53.2,52.7,29.28,North,-999,-999.0,-999.0,98,-99.99,,,-99.99,meteohub,2013-01-29 23:17:00,
2013-01-29 23:22:00,53.2,52.7,29.28,North,-999,-999.0,-999.0,98,-99.99,,,-99.99,meteohub,2013-01-29 23:22:00,
2013-01-29 23:27:00,53.2,52.7,29.28,North,-999,-999.0,-999.0,98,-99.99,,,-99.99,meteohub,2013-01-29 23:27:00,
2013-01-29 23:37:00,53.2,52.7,29.28,North,-999,-999.0,-999.0,98,-99.99,,,-99.99,meteohub,2013-01-29 23:37:00,
2013-01-29 23:42:00,53.4,52.9,29.28,North,-999,-999.0,-999.0,98,-99.99,,,-99.99,meteohub,2013-01-29 23:42:00,
2013-01-29 23:47:00,53.4,52.9,29.28,North,-999,-999.0,-999.0,98,-99.99,,,-99.99,meteohub,2013-01-29 23:47:00,
2013-01-29 23:52:00,53.4,52.9,29.28,North,-999,-999.0,-999.0,98,-99.99,,,-99.99,meteohub,2013-01-29 23:52:00,
2013-01-29 23:57:00,53.6,53.1,29.28,North,-999,-999.0,-999.0,98,-99.99,,,-99.99,meteohub,2013-01-29 23:57:00,